Regional Weather Roundup
Issued by NWS

Home | Current Version | Previous Version | Text Only | Print | Product List | Glossary On
Versions: 1 2 3 4 5 6 7 8 9 10 11 12 13 14 15 16 17 18 19 20 21 22 23 24 25 26 27 28 29 30 31 32 33 34 35 36 37 38 39 40 41 42 43 44 45 46 47 48 49 50
000
ASUS45 KABQ 251610
RWRNM
NEW MEXICO REGIONAL WEATHER ROUNDUP
NATIONAL WEATHER SERVICE ALBUQUERQUE NM
900 AM MST SUN FEB 25 2018

NOTE: "FAIR" MEANS FEW OR NO CLOUDS BELOW 12,000 FEET AGL WITH NO
       SIGNIFICANT WEATHER OR OBSTRUCTIONS TO VISION.

      THIS PRODUCT IS RELEASED AS TWO VERSIONS.  ONE VERSION NEAR
      THE TOP OF THE HOUR CONTAINING PRELIMINARY DATA FROM ALBUQUERQUE
      AND OTHER STATIONS.  A FINAL VERSION WITH ADDITIONAL DATA IS
      ISSUED ABOUT 10 MINUTES AFTER THE HOUR.

NMZ501-503-504-510>518-251700-
NORTHWEST PLATEAU/NORTHCENTRAL MOUNTAINS

CITY           SKY/WX    TMP DP  RH WIND       PRES   REMARKS
FARMINGTON     FAIR      29  18  63 W16       30.11R WCI  17
LOS ALAMOS     CLOUDY    27  12  54 SW6       30.03R WCI  20
SANTA FE       FAIR      30  18  60 W14       30.02R WCI  19
TAOS           FAIR      27  16  63 W14G21    30.01R WCI  16
ANGEL FIRE     LGT SNOW  18  12  79 W9        29.93R WCI   7

$$
NMZ402-403-502-505>509-251700-
WESTCENTRAL MOUNTAINS/SOUTHWEST MOUNTAINS

CITY           SKY/WX    TMP DP  RH WIND       PRES   REMARKS
GALLUP         FAIR      27  15  61 NW12      30.13R WCI  17
GRANTS         FAIR      30  11  46 NW23G31   30.11R WCI  16
SILVER CITY    FAIR      38   8  28 NW21G28   30.12R WCI  28

$$
NMZ407-409-411-412-251700-
SOUTHERN DESERTS

CITY           SKY/WX    TMP DP  RH WIND       PRES   REMARKS
DEMING         FAIR      42  15  33 W9        30.13R
LAS CRUCES     FAIR      43  10  26 W8        30.13R
HOLLOMAN AFB   FAIR      48  11  22 SE9       30.13R
ALAMOGORDO     FAIR      46  10  23 S12       30.12R
T OR C         FAIR      45  -2  14 N15G21    30.11R

$$
NMZ519>523-251700-
CENTRAL VALLEYS/CENTRAL HIGHLANDS

CITY           SKY/WX    TMP DP  RH WIND       PRES   REMARKS
ALBUQUERQUE    FAIR      34  12  40 W15       30.10R WCI  24
DOUBLE EAGLE   PTSUNNY   32  14  47 MISG      30.10R
MORIARTY ARPT  FAIR      35  12  39 W23       30.06R WCI  23
CLINES CORNERS FAIR      28  10  46 W31G46    29.98S WCI  12
BELEN          FAIR      37  10  32 NW20G29   30.12S WCI  26
SOCORRO        FAIR      39   4  23 NW6       30.14R WCI  34

$$
NMZ524>526-539-540-251700-
SOUTHCENTRAL MOUNTAINS

CITY           SKY/WX    TMP DP  RH WIND       PRES   REMARKS
RUIDOSO        FAIR      37  -4  17 NW21G29   30.03R WCI  27

$$
NMZ527>531-251700-
NORTHEAST HIGHLANDS/NORTHEAST PLAINS

CITY           SKY/WX    TMP DP  RH WIND       PRES   REMARKS
LAS VEGAS      FAIR      30  10  43 W13       29.94R WCI  20
RATON          FAIR      35   7  31 W17G23    29.91S WCI  25
CLAYTON        FAIR      41   8  25 W16       29.91F

$$
NMZ532>537-251700-
EASTCENTRAL PLAINS

CITY           SKY/WX    TMP DP  RH WIND       PRES   REMARKS
SANTA ROSA     FAIR      40   9  27 W17G37    30.00R WCI  32
TUCUMCARI      FAIR      46   8  21 W24G30    29.97R
CANNON AFB     FAIR      43   8  23 W13       30.02R
CLOVIS AIRPORT FAIR      43   8  23 W9        30.02R

$$
NMZ028-029-538-251700-
SOUTHEAST PLAINS

CITY           SKY/WX    TMP DP  RH WIND       PRES   REMARKS
ROSWELL        FAIR      38  12  34 NE5       30.02R WCI  34
ARTESIA        FAIR      52   7  16 SW15      30.03S
CARLSBAD       FAIR      42   8  24 S7        30.04R
HOBBS          SUNNY     50   3  14 S9        30.04R


$$




USA.gov is the U.S. government's official web portal to all federal, state and local government web resources and services.